Lake Erie PROM 2019 vs Lake Erie PROM 2018

Aggregate Data Points
Difference This Meet That Meet
Overall Athletes +6 355 349
Overall Average -9.36 22:51.63 23:01.00
1st-10th Place -23.32 17:22.67 17:45.99
1st-25th Place -18.12 17:51.63 18:09.75
1st-50th Place -15.86 18:27.18 18:43.04
1st-100th Place -19.39 19:06.26 19:25.64
Common Athletes -- -- 139
Ran Faster 75 107 32
Ran Season Best 30 52 22
Average Time -53.58 22:01.52 22:55.10
Median Time -34.40 21:13.90 21:48.30
Middle 80% Times -45.56 21:40.94 22:26.50
Top 10% Times -50.65 17:43.76 18:34.41
Top 25% Times -47.99 18:36.22 19:24.21
Top 50% Times -45.92 19:28.13 20:14.05
Bottom 50% Times -1:00.49 24:16.02 25:16.51
Bottom 25% Times -1:08.13 26:51.09 27:59.21
Bottom 10% Times -2:02.47 29:23.41 31:25.89
Average Difference -53.58 -- --
Median Difference -2:40.50 -- --
Middle 80% Difference -41.84 -- --
Top 10% Difference -32.46 -- --
Top 50% Difference -44.70 -- --
Top 25% Difference -34.55 -- --
Top 50% Difference -44.70 -- --
Bottom 50% Difference -1:04.00 -- --
Bottom 25% Difference -1:12.99 -- --
Bottom 10% Difference -2:46.91 -- --

Performances of Common Athletes
Athlete Team Difference This Meet That Meet
Fred Wallace Ann Arbor Pioneer -30.30 16:58.80 17:29.10
Collin Melnykowycz Ann Arbor Pioneer -1:20.40 17:01.80 18:22.20
Andrew Victoria Saline -58.70 17:15.40 18:14.10
Cody Stein Saline -59.50 17:17.20 18:16.70
Nathan Irgang Saline -18.60 17:28.30 17:46.90
Levi Straszewski Ann Arbor Pioneer -2:19.20 17:29.10 19:48.30
James Harrison Saline -45.00 17:38.10 18:23.10
Noah Pelletier Saline -10.60 17:48.20 17:58.80
Garrett Kracht Ann Arbor Pioneer -2:02.60 17:50.00 19:52.60
Tomiwa Adunbi Ann Arbor Pioneer -42.70 18:07.00 18:49.70
Peter Florence Ann Arbor Pioneer -3:23.00 18:08.90 21:31.90
Luke Crowner Saline -43.20 18:11.60 18:54.80
Patrick Dotson Temperance-Bedford -2:09.50 18:27.70 20:37.20
Ryan Gore Temperance-Bedford -44.60 18:30.60 19:15.20
Kevin Dancey Ann Arbor Pioneer +10.70 18:41.90 18:31.20
Jadon Sterken Ann Arbor Pioneer -37.80 18:36.10 19:13.90
Dominic Dimambro New Boston Huron -1:03.40 18:41.00 19:44.40
Nicolas Spadoni Dearborn Divine Child -2:40.40 18:42.30 21:22.70
Jason Wu Allen Park -1:20.20 18:55.40 20:15.60
Kirk Phillips Southgate Anderson -2:08.60 18:55.80 21:04.40
Caden Bodine Temperance-Bedford -55.30 18:59.90 19:55.20
Preston Ulery Temperance-Bedford -1:09.60 19:02.20 20:11.80
Kyle O'connor Dearborn Divine Child -1:05.30 19:07.40 20:12.70
Ethan Kaiser Brownstown Woodhaven -1:55.80 19:08.30 21:04.10
Gavin Kushmaul Ann Arbor Pioneer -2:49.60 19:14.70 22:04.30
Brendan Bellor Brownstown Woodhaven +1:58.10 21:13.90 19:15.80
Andrew Whitman Brownstown Woodhaven -1:33.90 19:17.40 20:51.30
Alex Jewel Southgate Anderson -1:14.80 19:23.00 20:37.80
Aidan Wright Ann Arbor Gabriel Richard -3:48.60 19:25.80 23:14.40
Cooper Franklin Ann Arbor Pioneer -2:40.50 19:29.00 22:09.50
Andrew Wight Dearborn Divine Child -1:19.00 19:29.40 20:48.40
Dylan Menge Brownstown Woodhaven +21.40 19:51.70 19:30.30
Daniel Gass Dearborn Divine Child -13.80 19:31.20 19:45.00
Jacob Gladieux Monroe -1:19.60 19:32.10 20:51.70
Wil Pinkerton Ann Arbor Pioneer +6.30 19:38.90 19:32.60
Ryan Cicala Dearborn Divine Child -10.30 19:32.90 19:43.20
Tyler Fantow Southgate Anderson -39.80 19:33.60 20:13.40
Brendan Sutton Ann Arbor Pioneer -47.30 19:35.50 20:22.80
Alec Brovont Wyandotte Roosevelt +1:06.70 20:43.70 19:37.00
Lawrence Stanley New Boston Huron +18.70 19:57.60 19:38.90
Collin Miracle Allen Park -29.70 19:39.60 20:09.30
Samuel Dudek Dearborn Divine Child -22.00 19:40.70 20:02.70
Nathan Lundgren Brownstown Woodhaven -0.10 19:41.20 19:41.30
Jonathan Bartley Dearborn Divine Child +32.50 20:14.30 19:41.80
Alex Apetroaei Monroe -1:37.40 19:44.50 21:21.90
Noah Packwood Southgate Anderson -1:17.00 19:49.30 21:06.30
Lucas Pratt Wyandotte Roosevelt -1:27.20 19:50.00 21:17.20
Kyle Meeker New Boston Huron -1:03.50 19:51.10 20:54.60
Noah Hall Temperance-Bedford -30.70 19:51.40 20:22.10
Jonah Gaggin Allen Park -55.90 19:52.00 20:47.90
Colin Riley Riverview -14.80 19:59.70 20:14.50
Cameron Jewel Southgate Anderson -19.90 20:00.40 20:20.30
Javier Caldwell Brownstown Woodhaven -1:17.60 20:02.60 21:20.20
Luke Riney Riverview +2:20.30 22:25.50 20:05.20
Noah Finley Monroe -1:50.30 20:06.70 21:57.00
Richard Firsdon Gibraltar Carlson -37.80 20:09.30 20:47.10
Justin Miner Allen Park -34.90 20:12.50 20:47.40
Greg Ohanian Ann Arbor Gabriel Richard +4.20 20:23.90 20:19.70
Marco Muniz Allen Park -7.80 20:28.80 20:36.60
Noah Eustice Ann Arbor Gabriel Richard -3:07.50 20:30.30 23:37.80
Jenny Cantrell Saline +21.50 20:56.40 20:34.90
Spencer Lingle Temperance-Bedford -3:08.50 20:35.30 23:43.80
Lake Warden New Boston Huron +25.70 21:05.90 20:40.20
Lydia Valtadoros Ann Arbor Pioneer -2:28.50 20:41.80 23:10.30
Jack Harrison Temperance-Bedford -7.00 20:46.30 20:53.30
Joel Ferrick Dearborn Divine Child +1:45.20 22:32.80 20:47.60
Owen Lazenby New Boston Huron -7.50 20:48.50 20:56.00
Jillian Falzone Temperance-Bedford -14.10 20:53.60 21:07.70
Tyler Melcher Riverview -36.20 21:00.10 21:36.30
Kaydin Snyder Southgate Anderson -2:05.20 21:01.90 23:07.10
Katrina Beardsley Ann Arbor Pioneer -27.30 21:04.40 21:31.70
Miles Fichtner New Boston Huron -52.20 21:13.30 22:05.50
Grant Yeager Temperance-Bedford -3:41.40 21:14.30 24:55.70
Carina Sanborn Ann Arbor Pioneer +3.60 21:19.00 21:15.40
Luke Loeffler Ann Arbor Pioneer -1:55.90 21:22.70 23:18.60
Madeline Heinrichs Temperance-Bedford +40.70 22:05.50 21:24.80
Kyle Murney New Boston Huron +56.30 22:21.30 21:25.00
Luke Ivity Wyandotte Roosevelt -1:46.30 21:26.00 23:12.30
Paige Hockley Ann Arbor Pioneer -1:15.70 21:26.50 22:42.20
Edison Carlile New Boston Huron +6:01.40 27:28.20 21:26.80
Analeigh Majewski Temperance-Bedford +5.10 21:35.20 21:30.10
Grey Johnson Monroe -14.00 21:30.40 21:44.40
Kenneth Fannin Allen Park -6:52.10 21:31.80 28:23.90
Kaden Tenaglia New Boston Huron -1:39.80 21:38.10 23:17.90
Spencer Buckler Allen Park -6.10 21:42.20 21:48.30
Brendon Buchanon Gibraltar Carlson -35.30 21:44.30 22:19.60
Presley Schmus Temperance-Bedford -2:07.90 21:44.50 23:52.40
Brendan Winters Wayne Memorial -2:04.80 21:56.80 24:01.60
Anna Laforest Ann Arbor Gabriel Richard -1:09.30 21:59.00 23:08.30
Elijah Rowe Gibraltar Carlson -12.10 22:06.80 22:18.90
Molly Renaud Dearborn Divine Child +5.60 22:16.00 22:10.40
Reece Thomas Temperance-Bedford -4:18.50 22:19.80 26:38.30
Lianna Shakoor Dearborn Divine Child -12.90 22:21.40 22:34.30
Aaron Hill Wayne Memorial +28.60 23:01.50 22:32.90
Sarah Baybeck Ann Arbor Pioneer -39.90 22:40.30 23:20.20
Madelynn Shannon Dearborn Divine Child -1:48.80 22:49.20 24:38.00
Lauren Jamsen Ann Arbor Pioneer -29.80 22:56.00 23:25.80
Paige Mccreadie Ann Arbor Pioneer -1:04.40 22:56.50 24:00.90
Kale Lampman Ann Arbor Pioneer -57.00 23:02.90 23:59.90
Dayna Dec Temperance-Bedford +17.50 23:22.70 23:05.20
Anna Coyne Dearborn Divine Child +1:33.70 24:42.80 23:09.10
Lena Zielke Dearborn Divine Child +5.60 23:19.80 23:14.20
Bryanna Kramarczyk Ypsilanti Lincoln -2:38.10 23:22.40 26:00.50
Yael Atzmon Ann Arbor Pioneer -1:40.60 23:24.30 25:04.90
Lexi Shaul Riverview -1:17.50 23:30.00 24:47.50
Alexa Pacifico Ann Arbor Pioneer -23.00 23:48.20 24:11.20
Emily Carr Ann Arbor Gabriel Richard +51.40 24:46.60 23:55.20
Ryan Cleary Gibraltar Carlson -2:06.10 24:00.70 26:06.80
Jacob Lerette New Boston Huron +3:24.00 27:27.70 24:03.70
Leah Jones Dearborn Divine Child +4:21.50 28:25.70 24:04.20
Charlie Hoke New Boston Huron -8:15.00 24:04.70 32:19.70
Alex Knapp Temperance-Bedford +14.30 24:31.30 24:17.00
Chiara Cascardo Dearborn +2:00.00 26:17.50 24:17.50
Shannon Pavlak Dearborn Divine Child -50.50 24:36.20 25:26.70
Caitlin Lynch Ann Arbor Pioneer -2:05.80 24:37.10 26:42.90
Grace Benz Ann Arbor Gabriel Richard +1:32.90 26:11.90 24:39.00
Ben Oaks New Boston Huron +2:39.60 27:27.20 24:47.60
Maria Lopez Ann Arbor Gabriel Richard -45.60 24:48.80 25:34.40
Sylva Das Ann Arbor Pioneer -3.30 24:52.40 24:55.70
Sydney Mertens Ypsilanti Lincoln -2:02.10 24:53.80 26:55.90
Piper Daleiden Ann Arbor Gabriel Richard -12.30 24:55.10 25:07.40
Elliott Varnum Ann Arbor Pioneer -4:03.40 25:01.90 29:05.30
Alexus Baldwin Monroe -40.70 25:18.00 25:58.70
Asley Calderon Allen Park -4:09.40 25:18.60 29:28.00
Emily Worden Dearborn Divine Child -30.70 25:34.00 26:04.70
Kelly Samulski Dearborn Divine Child -1:12.80 25:34.60 26:47.40
Fatin Saad Dearborn -3:03.70 25:37.10 28:40.80
Jasmine Kouza Dearborn Divine Child +32.30 26:22.30 25:50.00
Claire Pfaffenbach Ann Arbor Gabriel Richard +36.90 26:47.00 26:10.10
Rebekah Schneider Ann Arbor Gabriel Richard -1:38.40 26:14.80 27:53.20
Megan Rakoczy Brownstown Woodhaven +17.30 26:35.20 26:17.90
Katie Forrest Ann Arbor Gabriel Richard -2:41.40 27:05.30 29:46.70
Carolyn Bonar Ann Arbor Gabriel Richard -2:54.70 27:12.80 30:07.50
Sofia Velazquez Dearborn Divine Child -29.50 27:47.00 28:16.50
Gloria Lopez Lincoln Park -1:39.20 29:33.70 31:12.90
Maria Karls Ann Arbor Gabriel Richard -4:07.70 29:43.90 33:51.60
Emily Rensi Ann Arbor Gabriel Richard -1:42.00 35:11.10 36:53.10
Lucy Chavey Ann Arbor Gabriel Richard -2:05.60 35:19.00 37:24.60
Anastasia Rizzo Lincoln Park -1:14.60 35:24.00 36:38.60